Regional Weather Roundup
Issued by NWS

Home | Current Version | Previous Version | Text Only | Print | Product List | Glossary On
Versions: 1 2 3 4 5 6 7 8 9 10 11 12 13 14 15 16 17 18 19 20 21 22 23 24 25 26 27 28 29 30 31 32 33 34 35 36 37 38 39 40 41 42 43 44 45 46 47 48 49 50
000
ASUS43 KLOT 231909
RWRIL

ILLINOIS REGIONAL WEATHER ROUNDUP
NATIONAL WEATHER SERVICE CHICAGO/ROMEOVILLE IL
200 PM CDT SUN JUL 23 2017

NOTE: "FAIR" INDICATES FEW OR NO CLOUDS BELOW 12,000 FEET WITH NO
SIGNIFICANT WEATHER AND/OR OBSTRUCTIONS TO VISIBILITY.

* THESE STATIONS ARE NOT UNDER NWS QUALITY CONTROL. THEY ALSO MAY NOT
  REPORT WEATHER SUCH AS PRECIPITATION OR FOG.

ILZ001-002-007-009-015-016-024-232000-
NORTHWEST ILLINOIS

CITY           SKY/WX    TMP DP  RH WIND       PRES   REMARKS
MOLINE         MOSUNNY   89  71  55 W18       29.82F HX  95
STERLING*      MOSUNNY   87  73  62 W13       29.81F HX  94
SAVANNA*       MOSUNNY   88  69  54 W12G21    29.80F HX  92
$$

ILZ003-004-008-010-011-017-018-232000-
NORTH CENTRAL ILLINOIS

CITY           SKY/WX    TMP DP  RH WIND       PRES   REMARKS
ROCKFORD       PTSUNNY   88  70  55 SW7       29.81F HX  93
FREEPORT*      MOSUNNY   84  71  63 SW13      29.81F HX  89
ROCHELLE*      MOSUNNY   84  73  67 SW10      29.82F HX  90
DE KALB*       MOSUNNY   85  71  63 W13       29.82F HX  90
PERU*          SUNNY    N/A N/A N/A W10G17    29.83F
$$

ILZ005-006-012>014-019>023-232000-
NORTHEAST ILLINOIS

CITY           SKY/WX    TMP DP  RH WIND       PRES   REMARKS
CHICAGO-OHARE  MOSUNNY   89  62  40 W9        29.78F HX  89
CHICAGO-MIDWAY MOSUNNY   90  61  37 NW9       29.78F HX  90
AURORA         SUNNY     86  70  58 W12       29.82F HX  90
LANSING*       MOSUNNY   88  61  39 W9        29.78F HX  88
JOLIET*        SUNNY     89  69  51 W9        29.81F HX  93
WAUKEGAN       CLOUDY    86  63  45 VRB5      29.77F HX  87
DUPAGE AIRPORT SUNNY     86  65  49 W12       29.80F HX  88
WHEELING       MOSUNNY   87  62  43 W9        29.79F HX  87
MORRIS*        MOSUNNY   86  69  56 W12       29.80F HX  90
ROMEOVILLE*    SUNNY     86  64  46 W12       29.81S HX  87
NORTHERLY ISL    N/A     82  73  74 CALM        N/A  HX  87
$$

LMZ740>746-232000-
SOUTHERN LAKE MICHIGAN

STATION/POSITION SKY/WX   TEMP    WIND        PRES    VSBY  WAVE
                          AIR SEA DIR/SP/G                  HT/PER
                          (F)     (DEG/KT/KT) (MB)    (MI)  (FT/S)
SOUTHERN BUOY              72 71  270/  6/  8 1008.8          1
WILMETTE HARBOR            80 78   70/  2/  2   N/A           0
HARRISON CRIB              80      60/  5/  5   N/A
BURNHAM HARBOR             81                   N/A
CALUMET HARBOR             81      50/  5/  7 1008.3F
BURNS HARBOR               79     350/  3/  4 1009.1F
MICHIGAN CITY              81     290/  5/  6   N/A
MICHIGAN CITY 6N           79 78  330/  4/  4   N/A           1
ST. JOSEPH                 76 76  300/  6/  6 1008.5          1
$$

ILZ025>027-034>036-040-047-049-050-058-095>099-232000-
WEST-CENTRAL ILLINOIS

CITY           SKY/WX    TMP DP  RH WIND       PRES   REMARKS
QUINCY         MOSUNNY   93  70  46 NW9       29.86F HX  99
GALESBURG*     MOSUNNY   88  71  58 W9        29.86F HX  93
MACOMB*        MOSUNNY   87  72  60 W8        29.88F HX  94
JACKSONVILLE*  MOSUNNY   89  71  54 W6        29.86F HX  95
PITTSFIELD*    MOSUNNY   90  74  58 W3        29.88F HX  99
$$

ILZ028>032-037-038-041>044-048-051>054-059>061-232000-
CENTRAL ILLINOIS

CITY           SKY/WX    TMP DP  RH WIND       PRES   REMARKS
PONTIAC        SUNNY     86  72  62 W13       29.84F HX  93
BLOOMINGTON    MOSUNNY   89  63  41 NW13G20   29.86F HX  90
DECATUR        MOSUNNY   88  72  58 NW12G21   29.85F HX  94
PEORIA         MOSUNNY   89  70  53 NW12G18   29.84F HX  94
LACON*         SUNNY     88  70  54 W10       29.82F HX  93
LINCOLN*       MOSUNNY   89  74  61 NW6       29.85F HX  97
SPRINGFIELD    MOSUNNY   90  77  65 W10       29.86F HX 103
TAYLORVILLE    MOSUNNY   87  73  62 NW8       29.86F HX  94
$$

ILZ033-039-045-046-055>057-062-063-232000-
EAST-CENTRAL ILLINOIS

CITY           SKY/WX    TMP DP  RH WIND       PRES   REMARKS
CHAMPAIGN      MOSUNNY   88  72  58 W14G21    29.84F HX  94
RANTOUL*       SUNNY     89  72  57 W15G21    29.83F HX  96
MATTOON        MOSUNNY   85  75  72 SW9       29.85F HX  93
PARIS*         PTSUNNY   82  77  84 SW10      29.85S HX  91
$$

ILZ079-100>102-232000-
SOUTHWEST ILLINOIS

CITY           SKY/WX    TMP DP  RH WIND       PRES   REMARKS
ALTON          MOSUNNY   84  72  65 SW8       29.89F HX  89
BELLEVILLE     MOSUNNY   87  68  52 CALM      29.89F HX  91
CAHOKIA*       MOSUNNY   90  64  42 CALM      29.88F HX  91
SPARTA*        MOSUNNY   85  66  54 W6        29.91F HX  87
$$

ILZ064>066-069>071-074>076-080>082-084>086-088>090-092>094-232000-
SOUTH-CENTRAL ILLINOIS

CITY           SKY/WX    TMP DP  RH WIND       PRES   REMARKS
CARBONDALE     SUNNY     86  72  62 VRB3      29.88F HX  92
CAIRO*         SUNNY     89  71  53 NE3       29.86F HX  95
EFFINGHAM*     SUNNY     86  70  57 SW13      29.89F HX  91
MARION         MOSUNNY   88  72  58 W5        29.89F HX  94
MT. VERNON     MOSUNNY   84  69  60 VRB3      29.89F HX  88
CENTRALIA*     SUNNY     85  70  60 SW7       29.89F HX  89
SALEM*         SUNNY     86  66  51 W7        29.89F HX  88
METROPOLIS*    SUNNY     89  73  59 SW5       29.87F HX  97
$$

ILZ067-068-072-073-078-083-087-091-232000-
SOUTHEAST ILLINOIS

CITY           SKY/WX    TMP DP  RH WIND       PRES   REMARKS
LAWRENCEVILLE  MOSUNNY   85  73  67 W10G21    29.87F HX  91
FLORA*         SUNNY     86  70  58 SW9       29.89S HX  90
FAIRFIELD*     SUNNY     83  71  65 W3        29.88F HX  88
HARRISBURG*    MOSUNNY   87  72  59 NW6       29.88F HX  94
ROBINSON*      MOSUNNY   83  73  72 W14       29.87F HX  89
CARMI*         CLOUDY    85  74  70 SW6       29.87F HX  93
$$

ABBREVIATIONS USED IN REMARKS
   TC - TEMPERATURE IN CELSIUS
  WCI - WIND CHILL INDEX
   HX - HEAT INDEX
  VSB - VISIBILITY
$$




USA.gov is the U.S. government's official web portal to all federal, state and local government web resources and services.